User: anonymous   Login
Location: Oshawa
(43.9000°N, 78.8670°W)
Time: 19:11:03
(UTC-05:00)
Language:

Cosmos 2333 Rocket - Orbit

View from above orbital plane
View from above orbital plane
View from above satellite
View from above satellite

Ground track
Ground track

The orbit data is extracted from the following two-line orbital elements,

1 24298U 96051B   17017.94741189 +.00000056 +00000-0 +56386-4 0  9998
2 24298 070.8455 018.7126 0012651 040.7422 319.4642 14.12472030050340
Epoch (UTC): 17 January 2017 22:44:16
Eccentricity: 0.0012651
inclination: 70.8455°
perigee height: 842 km
apogee height: 860 km
right ascension of ascending node: 18.7126°
argument of perigee: 40.7422°
revolutions per day: 14.12472030
mean anomaly at epoch: 319.4642°
orbit number at epoch: 5034

The dashed part of the orbit path shows where the satellite is in the earth's shadow,  

DLR